www.pogodaiklimat.ru

Погода и климат >> Архив погоды >> Венгрия >> Szombathely


ПОГОДА в Szombathely

  • Прогноз погоды в Szombathely
  • Монитор погоды в Szombathely
  • Климат города

АРХИВ ПОГОДЫ в Szombathely

Время (UTC), дата Ветер
(напр.,м/с)
 
Видим.   Явления Облачность Т
(С)
Тd
(С)
f
(%)
Тe
(С)
Тes
(С)
Комфортность P
(гПа)
Po
(гПа)
Тmin
(С)
Tmax
(С)
R
(мм)
R24
(мм)
S
(см)
04 12.12 В 1 30 км 9/4 900 м
[Sc Ac As Ci sp]
+1.2 -3.1 73 -0 -0 1018.4 993.1
05 12.12 СВ 1 15 км 9/5 800 м
[Sc Ac lent Cs]
+0.6 -0.8 90 -1 -1 1018.9 993.5
06 12.12 ЮЗ 1 12 км 9/6 600 м
[Sc Ac lent Ci sp]
0.0 -0.7 95 -2 -2 1019.2 993.8 0.0
07 12.12 штиль 0 5000 м слабый дождь со снегом 9/9 600 м
[Sc]
+0.3 -0.1 97 -1 -1 1019.7 994.3
08 12.12 штиль 0 н/о н/о +0.6 +0.2 97 -1 -1 1020.0 994.6
09 12.12 10 км в посл. час дождь со снегом 9/6 600 м
[Cu Sc Ac lent Ci sp]
1020.1 994.7
10 12.12 С 1 н/о н/о +2.5 +0.7 88 +1 +1 1020.5 995.3
11 12.12 С 3
{7}
н/о н/о +3.1 +0.8 85 -1 -1 1020.6 995.4
12 12.12 С 3 13 км слабый дождь {снег} 9/8 200 м
[Sc Ac As Ci sp]
+1.8 0.0 88 -3 -2 1020.8 995.5 0.5
13 12.12 в посл. час дождь н/о
14 12.12 С 3 30 км 6/5 240 м
[Sc diur, vesp Ac lent Ci sp]
+3.2 -0.3 78 -1 -0 1020.8 995.6
15 12.12 С 2 30 км {дождь} 8/6 300 м
[Sc diur, vesp Ac lent Ci sp]
+2.5 -0.6 80 -1 -1 1021.1 995.9
16 12.12 С 1 н/о н/о +1.8 -0.6 84 0 0 1021.3 996.0
17 12.12 С 2 н/о н/о +1.1 -1.0 86 -2 -2 1021.7 996.3
18 12.12 СВ 1 30 км {ливн. осадки, дождь} 4/1 700 м
[Sc diur, vesp Ac lent Ci sp]
+0.3 -1.1 90 -2 -2 1022.0 996.5 +3.3 0.5
19 12.12 СВ 1 н/о н/о -0.1 -1.2 92 -2 -2 1022.3 996.8
20 12.12 С 1 н/о н/о +0.2 -1.1 91 -2 -2 1022.2 996.7
21 12.12 З 1 н/о н/о -0.3 -1.6 91 -2 -2 1022.5 997.0
22 12.12 С 2 н/о н/о -0.1 -1.5 90 -4 -4 1022.4 996.9
23 12.12 З 1 н/о н/о -1.6 -2.4 94 -4 -4 1022.9 997.2
00 13.12 З 1 н/о н/о -2.1 -2.8 95 -4 -4 1022.9 997.2
01 13.12 штиль 0 н/о н/о -2.8 -3.5 95 -4 -4 1023.0 997.2
02 13.12 СЗ 1 н/о н/о -3.3 -3.8 96 -6 -6 1022.9 997.1
03 13.12 Ю 1 н/о н/о -3.6 -4.1 96 -6 -6 1023.0 997.1
04 13.12 Ю 1 20 км 9/0
[As trans]
-3.1 -3.5 97 -6 -6 1022.8 997.0
05 13.12 штиль 0 18 км 10/0
[As trans]
-2.4 -2.9 96 -4 -4 1022.4 996.7
06 13.12 штиль 0 15 км 10/5 300 м
[St As op]
-1.8 -2.4 96 -3 -3 1022.6 996.9 -3.8
07 13.12 штиль 0 8000 м 9/9 300 м
[St]
-1.3 -1.7 97 -3 -3 1022.7 997.1
08 13.12 СВ 1 н/о н/о -1.4 -1.8 97 -4 -4 1023.0 997.3
09 13.12 СВ 1 700 м туман 10/10 90 м
[St]
-1.2 -1.5 98 -4 -4 1022.9 997.3
10 13.12 СВ 2 н/о н/о -1.5 -1.8 98 -6 -6 1022.8 997.1
11 13.12 СВ 2 н/о н/о -1.1 -1.4 98 -5 -5 1022.2 996.6
12 13.12 С 1 400 м туман ?/? -1.3 -1.7 97 -4 -4 1022.1 996.5
13 13.12 СВ 1 600 м туман ?/? -1.1 -1.4 98 -3 -3 1022.0 996.4
14 13.12 800 м туман 9/9 150 м
[St]
-0.9 -1.3 97 1021.7 996.1
15 13.12 СВ 2 800 м туман 10/10 150 м
[St]
-1.0 -1.6 96 -5 -5 1021.8 996.2
16 13.12 СВ 1 н/о н/о -1.0 -1.7 95 -3 -3 1021.7 996.1
17 13.12 штиль 0 н/о н/о -0.6 -2.3 88 -2 -2 1021.5 996.0
18 13.12 В 2 1300 м дымка {туман} 10/10 100 м
[St]
-1.5 -2.3 94 -6 -6 1021.9 996.3
19 13.12 В 2 н/о н/о -1.5 -2.2 95 -6 -6 1022.2 996.6
20 13.12 В 1 н/о н/о -1.6 -2.4 94 -4 -4 1022.5 996.8
21 13.12 СВ 2 н/о н/о -1.7 -2.5 94 -6 -6 1022.7 997.0
22 13.12 СВ 2 н/о н/о -1.9 -2.6 95 -6 -6 1022.8 997.1
23 13.12 СВ 1 н/о н/о -2.0 -2.4 97 -4 -4 1022.7 997.0
00 14.12 СВ 2 н/о н/о -2.4 -2.7 98 -7 -7 1022.6 996.9
01 14.12 В 3 н/о н/о -2.7 -3.0 98 -8 -8 1022.8 997.0
02 14.12 В 2 н/о н/о -2.8 -3.1 98 -7 -7 1022.7 996.9
03 14.12 СВ 1 н/о н/о -2.8 -3.1 98 -5 -5 1022.6 996.8
04 14.12 С 2 200 м переохл. туман ?/? -2.9 -3.2 98 -7 -7 1022.5 996.7
05 14.12 СВ 2 400 м переохл. туман ?/? -2.7 -3.0 98 -7 -7 1022.7 996.9
06 14.12 С 2 400 м переохл. туман ?/? -2.8 -3.1 98 -7 -7 1023.0 997.2 -2.9
07 14.12 С 2 300 м переохл. туман ?/? -2.6 -2.9 98 -7 -7 1023.4 997.6
08 14.12 С 2 н/о н/о -2.3 -2.6 98 -7 -7 1023.8 998.0
09 14.12 С 2 400 м туман ?/? -2.2 -2.5 98 -6 -6 1024.0 998.2
10 14.12 С 2 н/о н/о -2.2 -2.5 98 -6 -6 1024.1 998.3
11 14.12 С 3 н/о н/о -2.0 -2.3 98 -7 -7 1023.7 998.0
12 14.12 СВ 3 1300 м слабый снег {туман} 10/0
[As op]
-2.1 -2.4 98 -7 -7 1023.4 997.7
13 14.12 С 3 1100 м слабый снег 10/0 150 м
[As op]
-1.9 -2.2 98 -7 -7 1023.1 997.4
14 14.12 С 3 1300 м слабый снег 10/0 150 м
[As op]
-1.8 -2.1 98 -7 -7 1023.1 997.4
15 14.12 С 3 1000 м слабый снег 10/0 150 м
[As op]
-1.8 -2.1 98 -7 -7 1023.3 997.6
16 14.12 С 2 н/о н/о -1.7 -2.0 98 -6 -6 1023.4 997.7
17 14.12 С 2 н/о н/о -1.8 -2.1 98 -6 -6 1023.6 997.9
18 14.12 С 3 2000 м слабый снег 10/0
[As op]
-1.9 -2.2 98 -7 -7 1023.5 997.8 0.3
19 14.12 С 2 н/о н/о -1.8 -2.1 98 -6 -6 1023.8 998.1
20 14.12 С 2 н/о н/о -1.7 -2.0 98 -6 -6 1023.7 998.0
21 14.12 С 2 н/о н/о -1.7 -2.0 98 -6 -6 1023.8 998.1
22 14.12 н/о н/о -1.8 -2.2 97 1023.7 998.0
23 14.12 С 3 н/о н/о -1.8 -2.2 97 -7 -7 1023.6 997.9
00 15.12 С 3 н/о н/о -1.8 -2.2 97 -7 -7 1023.1 997.4 0.2
01 15.12 С 3 н/о н/о -2.0 -2.4 97 -7 -7 1023.1 997.4
02 15.12 С 3 н/о н/о -2.0 -2.4 97 -7 -7 1023.2 997.5
03 15.12 С 3 н/о н/о -2.0 -2.4 97 -7 -7 1023.0 997.3
04 15.12 С 3 н/о н/о -1.8 -2.2 97 -7 -7 1022.9 997.2
05 15.12 С 3 1000 м слабый снег 10/0 180 м
[As op]
-1.8 -2.2 97 -7 -7 1022.8 997.1
06 15.12 С 3 1600 м слабый снег 10/0 240 м
[As op]
-1.9 -2.5 96 -7 -7 1022.9 997.2 -2.1 0.3
07 15.12 С 3
{7}
4000 м слабый снег 10/0 400 м
[As op]
-1.9 -2.7 94 -7 -7 1023.0 997.3
08 15.12 С 4
{8}
н/о н/о -1.8 -2.6 94 -8 -8 1023.2 997.5
09 15.12 С 3 6000 м слабый снег {метель} 10/10 480 м
[Sc]
-1.6 -2.7 92 -7 -7 1023.3 997.6
10 15.12 С 4
{9}
н/о н/о -1.3 -2.6 91 -7 -7 1022.9 997.3
11 15.12 С 4
{9}
н/о н/о -1.0 -2.7 88 -7 -7 1022.3 996.7
12 15.12 С 5 7000 м слабый снег {метель} 9/9 300 м
[Sc]
-0.8 -2.8 86 -7 -7 1022.0 996.4
13 15.12 С 6 7000 м слабый снег {метель} 9/9 300 м
[Sc]
-0.7 -3.1 84 -7 -7 1021.7 996.1
14 15.12 С 5 13 км слабый снег {метель} 8/8 400 м
[Sc Ac trans Ci sp]
-0.6 -3.1 83 -7 -7 1021.7 996.2
15 15.12 С 5 15 км позёмок {снег, метель} 9/5 300 м
[Sc Ac trans Cs]
-0.7 -3.5 81 -7 -7 1022.0 996.4
16 15.12 С 5
{10}
н/о н/о -0.9 -3.7 81 -7 -7 1022.2 996.6
17 15.12 С 4
{9}
н/о н/о -0.7 -3.5 81 -6 -6 1022.3 996.7
18 15.12 С 6 8000 м слабый снег {метель} 10/10 180 м
[Sc]
-0.9 -4.2 78 -8 -8 1022.4 996.8 -0.5
19 15.12 С 4
{10}
н/о н/о -1.1 -3.9 81 -7 -7 1022.5 996.9
20 15.12 С 4
{8}
н/о н/о -1.2 -4.2 80 -7 -7 1022.3 996.7
21 15.12 С 3 н/о н/о -1.1 -4.6 77 -6 -6 1022.1 996.5
22 15.12 С 4
{9}
н/о н/о -0.9 -4.8 75 -6 -6 1021.8 996.2
23 15.12 С 3
{8}
н/о н/о -0.9 -5.1 73 -6 -6 1021.6 996.0
00 16.12 С 4
{8}
н/о н/о -0.9 -5.1 73 -6 -6 1021.3 995.7
01 16.12 С 3
{7}
н/о н/о -0.9 -5.5 71 -5 -5 1021.7 996.1
02 16.12 С 2 н/о н/о -1.1 -5.5 72 -5 -5 1021.6 996.0
03 16.12 С 2 н/о н/о -1.2 -5.6 72 -5 -5 1021.0 995.4
04 16.12 СЗ 1 15 км 10/1 300 м
[Frnb Ac As]
-1.7 -5.4 76 -4 -4 1021.1 995.5
05 16.12 З 2 15 км 10/0
[Ac As]
-2.0 -4.5 83 -6 -6 1021.5 995.8
06 16.12 ЮЗ 1 13 км 10/0
[Ac As]
-2.4 -4.4 86 -5 -5 1021.3 995.6 -2.4
07 16.12 Ю 1 13 км 9/9 1000 м
[Sc]
-2.4 -4.4 86 -5 -5 1021.0 995.3
08 16.12 Ю 1 н/о н/о -2.4 -4.4 86 -5 -5 1021.0 995.3
09 16.12 Ю 1 15 км 9/9 1080 м
[Sc]
-2.0 -4.3 84 -4 -4 1021.5 995.8
10 16.12 Ю 3 н/о н/о -1.4 -4.4 80 -6 -6 1021.1 995.5
11 16.12 Ю 4 н/о н/о -0.8 -4.8 74 -6 -6 1020.1 994.6
12 16.12 Ю 5 16 км 9/8 1000 м
[Sc Ci sp]
-0.6 -5.4 70 -7 -6 1019.8 994.3
13 16.12 Ю 3
{7}
16 км 9/5 1000 м
[Sc Ac lent Cs]
-0.5 -5.3 70 -5 -5 1019.1 993.6
14 16.12 Ю 3 16 км 9/4 1000 м
[Sc Ac As Ci sp]
-0.6 -4.8 73 -5 -5 1019.1 993.6
15 16.12 Ю 2 15 км 8/3 900 м
[Sc Ac As Ci sp]
-0.7 -4.6 75 -4 -4 1019.7 994.2
16 16.12 Ю 1 н/о н/о -1.7 -4.9 79 -4 -4 1020.0 994.4
17 16.12 ЮВ 1 н/о н/о -3.3 -5.5 85 -6 -6 1020.0 994.2
18 16.12 ЮВ 2 13 км 4/0
[Ac lent Ci sp]
-4.4 -6.4 86 -9 -9 1020.4 994.5 0.0
19 16.12 штиль 0 н/о н/о -4.6 -6.1 89 -6 -6 1020.7 994.8
20 16.12 Ю 1 н/о н/о -6.1 -7.3 91 -9 -9 1021.4 995.3
21 16.12 штиль 0 н/о н/о -5.5 -6.3 94 -7 -7 1021.2 995.2
22 16.12 З 1 н/о н/о -5.7 -6.5 94 -8 -8 1021.6 995.6
23 16.12 З 1 н/о н/о -5.3 -6.1 94 -8 -8 1021.8 995.8
00 17.12 штиль 0 н/о н/о -5.4 -6.1 95 -6 -6 1021.6 995.6
01 17.12 ЮЗ 1 н/о н/о -6.5 -7.4 93 -9 -9 1021.9 995.8
02 17.12 Ю 1 н/о н/о -6.2 -7.1 93 -9 -9 1021.8 995.7
03 17.12 ЮЗ 1 н/о н/о -7.3 -8.4 92 -10 -10 1021.8 995.6
04 17.12 З 2 8000 м 3/0
[Ac lent Ci sp]
-6.7 -7.6 93 -11 -11 1021.7 995.6
05 17.12 З 1 7000 м 5/0
[Ac lent Ci sp]
-7.2 -8.3 92 -10 -10 1021.9 995.7
06 17.12 ЮВ 1 4000 м дымка 9/3 600 м
[Sc Ac lent Cs]
-6.4 -7.3 93 -9 -9 1022.1 996.0
07 17.12 ЮВ 1 3500 м дымка 9/4 800 м
[Sc Ac As]
-5.5 -6.4 93 -8 -8 1022.5 996.5
08 17.12 Ю 2 н/о н/о -4.7 -5.5 94 -9 -9 1023.3 997.3
09 17.12 Ю 1 4000 м дымка 10/10 400 м
[St]
-4.4 -5.4 93 -7 -7 1024.1 998.1
10 17.12 Ю 1 н/о н/о -3.6 -5.0 90 -6 -6 1024.3 998.4
11 17.12 штиль 0 н/о н/о -2.7 -4.6 87 -4 -4 1024.1 998.3
12 17.12 штиль 0 8000 м 9/9 900 м
[Sc]
-1.5 -4.3 81 -3 -2 1023.8 998.1
13 17.12 В 1 9000 м 9/9 900 м
[Sc]
-1.2 -4.4 79 -3 -3 1024.1 998.4
14 17.12 СВ 1 7000 м 8/1 900 м
[Sc Ac lent Cs]
-1.5 -4.5 80 -4 -3 1024.8 999.1
15 17.12 ЮВ 1 4000 м дымка 9/3 800 м
[Sc Ac lent Cs]
-2.3 -4.5 85 -4 -4 1025.7 999.9
16 17.12 штиль 0 н/о н/о -3.1 -4.7 89 -4 -4 1026.6 1000.7
17 17.12 штиль 0 н/о н/о -2.5 -3.8 91 -4 -4 1027.4 1001.5
18 17.12 штиль 0 2500 м дымка 10/10 300 м
[St]
-2.1 -3.5 90 -3 -3 1027.8 1002.0
19 17.12 штиль 0 н/о н/о -1.8 -3.5 88 -3 -3 1028.6 1002.8
20 17.12 З 1 н/о н/о -1.5 -3.2 88 -4 -4 1028.8 1003.0
21 17.12 З 2 н/о н/о -1.6 -3.5 87 -6 -6 1029.0 1003.2
22 17.12 З 1 н/о н/о -3.9 -5.3 90 -6 -6 1029.5 1003.4
23 17.12 ЮЗ 1 н/о н/о -5.2 -6.2 93 -8 -8 1030.2 1004.0
00 18.12 З 2 н/о н/о -4.9 -5.7 94 -9 -9 1029.8 1003.6
01 18.12 З 2 н/о н/о -4.9 -5.7 94 -9 -9 1029.9 1003.7
02 18.12 З 1 н/о н/о -3.4 -4.5 92 -6 -6 1030.2 1004.2
03 18.12 ЮЗ 2 н/о н/о -2.8 -4.2 90 -7 -7 1030.0 1004.0
04 18.12 ЮЗ 2 4000 м дымка 8/3 800 м
[Sc Ac lent Cs]
-3.9 -5.0 92 -8 -8 1030.5 1004.4
05 18.12 ЮЗ 2 4000 м дымка 9/5 700 м
[Sc Ac lent Cs]
-4.7 -5.9 91 -9 -9 1030.7 1004.5
06 18.12 ЮЗ 2 4000 м дымка 9/6 700 м
[Sc Ac lent Ci sp]
-3.2 -4.7 89 -7 -7 1030.9 1004.9 -5.3
07 18.12 ЮЗ 2 4000 м дымка 8/3 800 м
[Sc Ac trans Ci sp]
-4.0 -5.4 90 -8 -8 1031.3 1005.2
08 18.12 З 2 н/о н/о -3.4 -4.8 90 -8 -8 1031.8 1005.7
09 18.12 ЮЗ 1 15 км 9/8 700 м
[Sc Ac lent Ci sp]
-1.6 -3.8 85 -4 -3 1031.8 1005.9
10 18.12 ЮЗ 2 н/о н/о +0.3 -2.7 80 -3 -3 1031.5 1005.8
11 18.12 З 2 н/о н/о +1.4 -2.2 77 -2 -2 1030.9 1005.3
12 18.12 ЮЗ 2 25 км 8/8 600 м
[Cu Sc Ac lent Ci sp]
+2.4 -1.6 75 -1 -0 1030.0 1004.5
13 18.12 З 3 28 км 8/8 600 м
[Cu Sc Ac lent Ci sp]
+2.9 -1.1 75 -1 -1 1029.6 1004.2
14 18.12 З 3 28 км 4/3 900 м
[Sc Ac lent Ci fib]
+3.3 -0.9 74 -0 -0 1029.6 1004.2
15 18.12 З 2 20 км 4/3 900 м
[Sc Ac lent Ci sp]
+1.4 -1.5 81 -2 -2 1030.0 1004.4
16 18.12 ЮЗ 1 н/о н/о -0.2 -1.9 88 -2 -2 1029.7 1004.0
17 18.12 ЮЗ 1 н/о н/о -1.5 -2.6 92 -4 -4 1029.8 1004.0
18 18.12 ЮВ 1 9000 м 3/3 700 м
[Sc Ac lent Ci fib]
-1.9 -2.7 94 -4 -4 1030.1 1004.2 +3.3
19 18.12 Ю 1 н/о н/о -2.5 -3.2 95 -5 -5 1030.3 1004.4
20 18.12 Ю 1 н/о н/о -2.5 -3.0 96 -5 -5 1030.1 1004.2
21 18.12 З 1 н/о н/о -2.3 -2.8 96 -5 -5 1030.1 1004.2
22 18.12 Ю 1 н/о н/о -1.3 -1.9 96 -4 -4 1029.8 1004.0
23 18.12 Ю 1 н/о н/о -1.0 -1.6 96 -3 -3 1029.4 1003.6
00 19.12 Ю 1 н/о н/о -0.9 -1.3 97 -3 -3 1029.0 1003.2
01 19.12 Ю 1 н/о н/о -0.6 -1.3 95 -3 -3 1028.4 1002.7
02 19.12 Ю 2 н/о н/о -0.4 -1.2 94 -4 -4 1028.2 1002.5

 

Местоположение метеостанции Szombathely (Венгрия): широта 47.27 долгота 16.63 высота над уровнем моря 221 м.

В архиве по умолчанию представлена погода в Szombathely за последнюю неделю. Архивные данные за месяц целиком и за предыдущие месяцы, начиная с января 2011 года, Вы можете получить, выбрав интересующий диапазон дат из раскрывающегося списка и нажав кнопку "Ввод!".


*Определитесь, кто Вы:
робот инопланетянин человек

Внимание! Время в таблицах - всемирное. Для получения местного времени необходимо прибавить поправку, которая в Szombathely равна 1 ч.

Смотрите также архив погоды в соседних городах и на ближайших метеорологических станциях:

Погода в Lutzmannsburg (Австрия) (22 км)
Погода в Kleinzicken (Австрия) (24 км)
Погода в Bad Tatzmannsdorf (Австрия) (32 км)
Погода в Krumbach I. D. Buckligen Welt (Австрия) (44 км)
Погода в Szentgotthard (Венгрия) (45 км)
Погода в Sopron (Венгрия) (46 км)
Погода в Zalaegerszeg (Венгрия) (46 км)
Погода в Hartberg (Австрия) (49 км)
Погода в Moenichkirchen (Австрия) (53 км)
Погода в Andau (Австрия) (63 км)

Пояснения к столбцам:

Ветер - указаны скорость ветра в м/с - средняя за 10 мин, порывы в срок и между сроками (в фигурных скобках) и направление, откуда дует ветер: С - северный, СВ - северо-восточный, В - восточный, ЮВ - юго-восточный, Ю - южный, ЮЗ - юго-западный, З - западный, СЗ - северо-западный.
Видимость - горизонтальная дальность видимости в метрах или километрах. При видимости от 1 до 10 км при отсутствии осадков обычно наблюдается дымка, при ухудшении видимости до 1 км и менее - туман. В сухую погоду видимость может ухудшаться дымом, пылью или мглою.
Явления - указаны атмосферные явления, наблюдавшиеся в срок или в последний час перед сроком; фигурными скобками обозначены явления, наблюдавшиеся между сроками (за 1-3 часа до срока); квадратными скобками обозначены град или гололедные отложения с указанием их диаметра в мм.
Облачность - указаны через наклонную черту общая и нижняя облачность в баллах и высота нижней границы облаков в метрах; квадратными скобками обозначены формы облаков: Ci - перистые, Cs - перисто-слоистые, Cc - перисто-кучевые, Ac - высококучевые, As - высокослоистые, Sc - слоисто-кучевые, Ns - слоисто-дождевые, Cu - кучевые, Cb - кучево-дождевые. Подробнее классификацию облаков см. в Атласе облаков (PDF).
T - Температура воздуха - температура, измеренная на высоте 2 м над землей.
Td - Температура точки росы - температура, при понижении до которой содержащийся в воздухе водяной пар достигнет насыщения.
f - Относительная влажность воздуха - влажноcть воздуха, измеренная на высоте 2 м над землей.
Te - Эффективная температура - температура, которую ощущает одетый по сезону человек в тени. Характеристика душности погоды. При расчете учитывается влияние влажности воздуха и скорости ветра на теплоощущения человека.
Tes - Эффективная температура на солнце - температура, которую ощущает человек, с поправкой на солнечный нагрев. Характеристика знойности погоды. Зависит от высоты солнца над горизонтом, облачности и скорости ветра. Ночью, в пасмурную погоду, а также при ветре 12 м/с и более поправка равна нулю.
P - Атмосферное давление - приведенное к уровню моря атмосферное давление.
Po - Атмосферное давление - измеренное на уровне метеостанции атмосферное давление.
Tmin - Минимальная температура - минимум температуры воздуха на высоте 2 м над землей.
Tmax - Максимальная температура - максимум температуры воздуха на высоте 2 м над землей.
R - Количество осадков - Количество выпавших осадков за период времени, мм. При наведении курсора мыши на число - период времени, за который выпало указанное количество осадков.
R24 - Количество осадков - Количество выпавших осадков за 24 часа, мм.
S - Снежный покров - Высота снежного покрова, см. При наведении курсора мыши на число - состояние снежного покрова и степень покрытия местности в баллах.